{"data":{"norad_id":68405,"intl_designator":"2026-064A","name":"SHIYAN-33","alt_names":[],"object_type":"PAYLOAD","status":"ACTIVE","operator":null,"country":"PRC","launch_date":"2026-03-27","launch_site_code":"JSC","launch_vehicle":null,"mission":null,"orbit_class":"UNKNOWN","rcs_meters":null,"size_class":null,"mass_kg":null,"dimensions":null,"purposes":[],"wikipedia_slug":null,"has_3d_model":false,"image_url":null,"decayed_at":null,"tle_current":{"epoch":"2026-05-24T22:32:26.949120Z","epoch_age_seconds":80262,"freshness":"FRESH","line1":"1 68405U 26064A   26144.93920080  .00004378  00000+0  18500-3 0  9997","line2":"2 68405  97.4625 220.5768 0014694  35.2311 324.9895 15.23674431  8955","mean_motion":15.23674431,"eccentricity":0.0014694,"inclination_deg":97.4625,"raan_deg":220.5768,"arg_perigee_deg":35.2311,"mean_anomaly_deg":324.9895,"bstar":0.000185,"rev_number":895,"period_min":94.508378607818,"perigee_km":484.66970022027,"apogee_km":504.86779563228,"semimajor_km":6872.9057479263,"source":"CELESTRAK","updated_at":"2026-05-25T13:38:07.808364Z"}}}